軌道要素
Epoch 2014 Mar. 4.0 TT = JDT 2456720.5
T 2014 Mar. 12.47584 TT MPCW
q 2.1562489 (2000.0) P Q
n 0.06483842 Peri. 180.72438 -0.56075941 -0.78185639
a 6.1364112 Node 303.42398 +0.76128809 -0.35746977
e 0.6486140 Incl. 19.05539 +0.32556003 -0.51079933
P 15.2
From 3640 observations 1998 Oct. 24-2015 Apr. 24, mean residual 0".6.
Nongravitational parameters A1 = +0.16, A2 = -0.5894.
|